Date String (YYYY-MM-DD hh:mm:ss) UTC,Instrument flags,Ambient pressure (hPa),Sample flow (lpm),Bypass flow (lpm),Sample temperature (°C),Ambient temperature (°C),ASC tube jacket temperature (°C),LED temperature (°C),Box temperature (°C),Sample RH (%),Span deviation,Mass concentration (μg/m³),Mass concentration (μg/m³),Mass concentration (μg/m³)
DateTimeUTC,F1_M11,P_M11,Q1_M11,Q2_M11,T1_M11,T2_M11,T3_M11,T4_M11,T5_M11,U1_M11,ZSPAN_M11,X0_M11,X2_M11,X1_M11
2022-05-09 03:00:00,,0804.9,5.00,0.00,29.7,28.9,00.0,38.6,31.5,17.6,0002.7,0029.98,0010.07,0004.28
2022-05-09 03:01:00,,0805.0,5.00,0.00,29.7,28.9,00.0,38.6,31.5,17.5,0003.2,0030.54,0010.11,0004.27
2022-05-09 03:02:00,,0805.1,5.00,0.00,29.7,28.9,00.0,38.6,31.5,17.5,0003.7,0030.67,0009.96,0004.25
2022-05-09 03:03:00,,0805.1,5.01,0.00,29.7,28.9,00.0,38.6,31.5,17.5,0000.1,0030.31,0009.90,0004.25
2022-05-09 03:04:00,,0805.0,5.00,0.00,29.7,28.9,00.0,38.6,31.5,17.5,0000.0,0029.70,0009.87,0004.23
2022-05-09 03:05:00,,0804.9,5.01,0.00,29.7,28.9,00.0,38.6,31.4,17.4,0000.0,0030.58,0009.91,0004.23
2022-05-09 03:06:00,,0804.9,4.99,0.00,29.7,28.9,00.0,38.6,31.5,17.3,0001.2,0031.65,0009.92,0004.24
2022-05-09 03:07:00,,0804.9,5.00,0.00,29.7,28.9,00.0,38.7,31.4,17.3,0000.1,0031.45,0009.92,0004.23
2022-05-09 03:08:00,,0805.1,4.99,0.00,29.7,28.9,00.0,38.7,31.5,17.3,0000.0,0032.35,0009.94,0004.21
2022-05-09 03:09:00,,0805.1,5.00,0.00,29.7,28.9,00.0,38.7,31.5,17.6,0000.0,0032.19,0009.89,0004.21
2022-05-09 03:10:00,,0805.1,5.00,0.00,29.7,28.9,00.0,38.7,31.5,17.6,0000.0,0031.55,0009.87,0004.19
2022-05-09 03:11:00,,0805.1,5.00,0.00,29.7,28.9,00.0,38.7,31.5,17.3,0000.0,0032.05,0009.82,0004.18
2022-05-09 03:12:00,,0805.1,5.00,0.00,29.7,28.9,00.0,38.7,31.5,17.2,0000.0,0031.55,0009.88,0004.18
2022-05-09 03:13:00,,0805.2,5.00,0.00,29.7,28.9,00.0,38.7,31.5,17.4,0000.0,0032.85,0010.09,0004.18
2022-05-09 03:14:00,,0805.2,5.00,0.00,29.7,28.9,00.0,38.7,31.5,17.8,0000.0,0033.84,0010.24,0004.17
2022-05-09 03:15:00,,0805.2,5.01,0.00,29.7,28.9,00.0,38.7,31.5,17.6,0000.0,0034.14,0010.32,0004.18
2022-05-09 03:16:00,,0805.2,5.01,0.00,29.7,28.9,00.0,38.7,31.5,17.3,0000.0,0033.65,0010.31,0004.16
2022-05-09 03:17:00,,0805.2,5.00,0.00,29.7,29.0,00.0,38.7,31.5,17.3,0000.0,0032.42,0010.24,0004.15
2022-05-09 03:18:00,,0805.2,5.01,0.00,29.7,29.0,00.0,38.7,31.5,17.3,0000.0,0032.87,0010.22,0004.16
2022-05-09 03:19:00,,0805.2,4.99,0.00,29.7,29.0,00.0,38.7,31.5,17.9,0000.0,0032.41,0010.09,0004.17
2022-05-09 03:20:00,,0805.2,5.00,0.00,29.7,29.0,00.0,38.7,31.5,17.7,0000.0,0032.47,0010.05,0004.17
2022-05-09 03:21:00,,0805.2,4.99,0.00,29.7,29.0,00.0,38.7,31.5,17.6,0000.0,0032.45,0010.00,0004.17
2022-05-09 03:22:00,,0805.2,5.01,0.00,29.7,29.0,00.0,38.7,31.5,17.5,0000.0,0032.17,0009.97,0004.18
2022-05-09 03:23:00,,0805.1,5.01,0.00,29.7,29.0,00.0,38.7,31.5,17.6,0001.3,0031.36,0009.83,0004.19
2022-05-09 03:24:00,,0805.1,4.99,0.00,29.7,28.0,00.0,38.7,31.3,17.5,0000.7,0029.71,0009.75,0004.19
2022-05-09 03:25:00,,0805.1,5.00,0.00,29.6,25.7,00.0,38.6,30.8,17.6,0000.0,0028.17,0009.59,0004.19
2022-05-09 03:26:00,,0805.2,5.00,0.00,29.4,25.5,00.0,38.6,30.8,17.6,0001.7,0028.60,0009.55,0004.21
2022-05-09 03:27:00,,0805.2,5.00,0.00,29.4,25.9,00.0,38.5,30.8,17.7,0003.2,0028.16,0009.55,0004.23
2022-05-09 03:28:00,,0805.2,5.00,0.00,29.3,26.3,00.0,38.5,30.9,17.7,0003.0,0028.69,0009.72,0004.25
2022-05-09 03:29:00,,0805.2,5.00,0.00,29.3,26.8,00.0,38.5,31.0,17.5,0002.5,0029.44,0009.68,0004.24
2022-05-09 03:30:00,,0805.4,5.00,0.00,29.3,27.1,00.0,38.4,31.0,17.5,0002.4,0028.64,0009.70,0004.24
2022-05-09 03:31:00,,0805.7,5.01,0.00,29.4,27.4,00.0,38.4,31.1,17.6,0001.8,0027.99,0009.75,0004.24
2022-05-09 03:32:00,,0805.7,4.99,0.00,29.4,27.7,00.0,38.4,31.2,19.5,0001.9,0028.27,0009.70,0004.22
2022-05-09 03:33:00,,0805.6,4.99,0.00,29.4,27.9,00.0,38.4,31.2,19.9,0001.5,0028.69,0009.65,0004.17
2022-05-09 03:34:00,,0805.5,5.00,0.00,29.4,28.0,00.0,38.4,31.2,20.2,0000.3,0029.13,0009.57,0004.12
2022-05-09 03:35:00,,0805.4,5.00,0.00,29.4,28.1,00.0,38.4,31.2,20.3,0000.0,0029.21,0009.42,0004.07
2022-05-09 03:36:00,,0805.4,5.01,0.00,29.4,28.2,00.0,38.4,31.2,20.3,0000.0,0029.85,0009.26,0004.00
2022-05-09 03:37:00,,0805.5,5.00,0.00,29.4,28.2,00.0,38.4,31.2,20.4,0000.0,0031.00,0009.07,0003.90
2022-05-09 03:38:00,,0805.4,5.00,0.00,29.4,28.3,00.0,38.4,31.2,20.3,0000.0,0030.72,0008.88,0003.82
2022-05-09 03:39:00,,0805.4,4.99,0.00,29.4,28.3,00.0,38.4,31.2,20.3,0000.0,0029.44,0008.58,0003.73
2022-05-09 03:40:00,,0805.6,5.00,0.00,29.4,28.3,00.0,38.4,31.2,20.3,0000.0,0028.19,0008.46,0003.66
2022-05-09 03:41:00,,0805.5,5.00,0.00,29.4,28.4,00.0,38.4,31.2,20.3,0000.0,0028.77,0008.34,0003.59
2022-05-09 03:42:00,,0805.5,5.00,0.00,29.4,28.4,00.0,38.4,31.2,20.3,0000.0,0030.39,0008.13,0003.52
2022-05-09 03:43:00,,0805.6,5.00,0.00,29.4,28.4,00.0,38.4,31.1,20.3,0000.0,0030.53,0008.01,0003.48
2022-05-09 03:44:00,,0805.7,5.00,0.00,29.4,28.4,00.0,38.4,31.2,20.3,0000.0,0030.49,0007.89,0003.46
2022-05-09 03:45:00,,0805.7,5.00,0.00,29.4,28.4,00.0,38.4,31.2,20.3,0000.0,0029.36,0007.77,0003.44
2022-05-09 03:46:00,,0805.7,4.99,0.00,29.3,28.4,00.0,38.4,31.1,20.3,0000.0,0029.89,0007.71,0003.43
2022-05-09 03:47:00,,0805.7,5.00,0.00,29.3,28.4,00.0,38.4,31.1,20.3,0000.0,0030.35,0007.66,0003.42
2022-05-09 03:48:00,,0805.7,5.00,0.00,29.3,28.4,00.0,38.4,31.1,20.3,0000.0,0029.27,0007.69,0003.45
2022-05-09 03:49:00,,0805.7,5.00,0.00,29.3,28.4,00.0,38.4,31.1,20.3,0000.0,0028.60,0007.71,0003.45
2022-05-09 03:50:00,,0805.7,4.99,0.00,29.3,28.4,00.0,38.3,31.1,20.3,0000.0,0028.92,0007.78,0003.45
2022-05-09 03:51:00,,0805.7,5.00,0.00,29.3,28.4,00.0,38.3,31.1,20.3,0000.0,0029.92,0007.75,0003.44
2022-05-09 03:52:00,,0805.7,5.00,0.00,29.3,28.4,00.0,38.3,31.1,20.3,0000.0,0029.30,0007.70,0003.43
2022-05-09 03:53:00,,0805.8,5.00,0.00,29.3,28.4,00.0,38.3,31.1,20.3,0000.0,0027.05,0007.62,0003.43
2022-05-09 03:54:00,,0805.8,5.01,0.00,29.3,28.4,00.0,38.3,31.1,20.3,0000.0,0027.36,0007.64,0003.41
2022-05-09 03:55:00,,0805.9,5.00,0.00,29.3,28.5,00.0,38.3,31.1,20.3,0000.0,0026.58,0007.66,0003.40
2022-05-09 03:56:00,,0805.9,5.00,0.00,29.3,28.4,00.0,38.3,31.1,20.4,0000.0,0026.11,0007.64,0003.38
2022-05-09 03:57:00,,0805.8,4.99,0.00,29.3,28.4,00.0,38.3,31.1,20.4,0000.0,0025.79,0007.63,0003.36
2022-05-09 03:58:00,,0805.8,5.00,0.00,29.3,28.4,00.0,38.3,31.0,20.4,0000.0,0025.50,0007.65,0003.36
2022-05-09 03:59:00,,0805.9,4.99,0.00,29.3,28.4,00.0,38.3,31.1,20.5,0000.0,0025.84,0007.70,0003.36
